,

(GMT )
Prerov

Weather History for LKPO - December, 2012

Change the Weather History Date:

Wednesday, December 5, 2012

  Actual Average Record
Temperature  
Mean Temperature 26 °F -  
Max Temperature 32 °F - - ()
Min Temperature 19 °F - - ()
Degree Days  
Heating Degree Days 40    
Moisture  
Dew Point 26 °F    
Average Humidity 94    
Maximum Humidity 100    
Minimum Humidity 86    
Precipitation  
Precipitation 0.00 in - - ()
Sea Level Pressure  
Sea Level Pressure 29.58 in    
Wind  
Wind Speed 3 mph ()    
Max Wind Speed 7 mph    
Max Gust Speed -    
Visibility 3.6 miles    
Events Fog , Snow    
T = Trace of Precipitation, MM = Missing Value Source: Averaged Metar Reports

Daily Weather History Graph

Daily Weather History Graph

Search for Another Location

Airport or City:

Trip Planner

Search our weather history database for the weather conditions in past years. The results will help you decide how hot, cold, wet, or windy it might be!

Date:

Astronomy

Dec. 05, 2012 Rise Set
Actual Time 7:30 AM CET 3:52 PM CET
Civil Twilight 6:52 AM CET 4:29 PM CET
Nautical Twilight 6:12 AM CET 5:09 PM CET
Astronomical Twilight 5:33 AM CET 5:48 PM CET
Moon 10:49 PM CET (12/5) 11:21 AM CET (12/5)
Length of Visible Light 9h 36m
Length of Day
8h 21m
Waning Gibbous, 62% of the Moon is Illuminated
Dec 5
Waning Gibbous
Dec 6
Last Quarter
Dec 13
New
Dec 20
First Quarter
Dec 28
Full

Hourly Weather History & Observations

Time (CET) Temp. Windchill Dew Point Humidity Pressure Visibility Wind Dir Wind Speed Gust Speed Precip Events Conditions
12:00 AM 30.2 °F 24.3 °F 30.2 °F 100% 29.50 in 2.8 mi South 5.8 mph - N/A   Mostly Cloudy
1:00 AM 30.2 °F 24.3 °F 30.2 °F 100% 29.50 in 2.8 mi South 5.8 mph - N/A   Mist
2:00 AM 30.2 °F 24.3 °F 30.2 °F 100% 29.50 in - SSW 5.8 mph - N/A   Mist
3:00 AM 30.2 °F 23.4 °F 30.2 °F 100% 29.47 in 2.8 mi South 6.9 mph - N/A   Mist
4:00 AM 32.0 °F 28.7 °F 30.2 °F 93% 29.47 in 3.7 mi SSW 3.5 mph - N/A   Overcast
5:00 AM 30.2 °F - 28.4 °F 93% 29.47 in 5.0 mi Variable 1.2 mph - N/A   Unknown
6:00 AM 30.2 °F - 28.4 °F 93% 29.47 in 5.0 mi Variable 2.3 mph - N/A   Mostly Cloudy
7:00 AM 30.2 °F 25.4 °F 28.4 °F 93% 29.47 in 5.0 mi SSW 4.6 mph - N/A   Scattered Clouds
8:00 AM 30.2 °F 24.3 °F 28.4 °F 93% 29.50 in 3.7 mi SSW 5.8 mph - N/A   Mostly Cloudy
8:55 AM 28.4 °F 22.2 °F 28.4 °F 100% 29.53 in 1.4 mi SSW 5.8 mph - N/A   Scattered Clouds
9:00 AM 28.4 °F 22.2 °F 26.6 °F 93% 29.53 in 1.4 mi SSW 5.8 mph - N/A   Scattered Clouds
10:00 AM 30.2 °F 24.3 °F 28.4 °F 93% 29.53 in 3.1 mi South 5.8 mph - N/A   Mostly Cloudy
11:00 AM 30.2 °F 25.4 °F 28.4 °F 93% 29.53 in 5.0 mi SSW 4.6 mph - N/A   Unknown
12:00 PM 32.0 °F - 28.4 °F 87% 29.56 in 5.0 mi Variable 2.3 mph - N/A Snow Light Snow
1:00 PM 32.0 °F 28.7 °F 30.2 °F 93% 29.56 in 6.2 mi SW 3.5 mph - N/A   Mostly Cloudy
2:00 PM 32.0 °F - 30.2 °F 93% 29.56 in 6.2 mi West 2.3 mph - N/A   Mostly Cloudy
4:00 PM 30.2 °F 25.4 °F 26.6 °F 86% 29.59 in 6.2 mi West 4.6 mph - N/A   Scattered Clouds
5:00 PM 28.4 °F - 24.8 °F 86% 29.62 in 6.2 mi Calm Calm - N/A   Scattered Clouds
6:00 PM 26.6 °F - 24.8 °F 93% 29.62 in - Calm Calm - N/A   Clear
7:00 PM 24.8 °F - 24.8 °F 100% 29.65 in 6.2 mi Calm Calm - N/A   Scattered Clouds
8:00 PM 24.8 °F - 23.0 °F 93% 29.65 in 5.0 mi Calm Calm - N/A Fog Fog
8:08 PM 23.0 °F - 23.0 °F 100% 29.68 in 5.6 mi Calm Calm - N/A Fog Shallow Fog
9:00 PM 21.2 °F - 19.4 °F 93% 29.68 in 4.3 mi East 1.2 mph - N/A Fog Shallow Fog
9:33 PM 21.2 °F - 19.4 °F 93% 29.68 in 1.9 mi Calm Calm - N/A Fog Fog
9:51 PM 19.4 °F - 17.6 °F 93% 29.68 in 0.4 mi East 1.2 mph - N/A Fog Light Freezing Fog
10:00 PM 19.4 °F - 17.6 °F 93% 29.68 in 0.4 mi East 2.3 mph - N/A Fog Light Freezing Fog
10:47 PM 21.2 °F 16.4 °F 19.4 °F 93% 29.68 in 0.7 mi East 3.5 mph - N/A   Mist
11:00 PM 21.2 °F 16.4 °F 19.4 °F 93% 29.68 in 0.7 mi East 3.5 mph - N/A   Mist
11:36 PM 21.2 °F 16.4 °F 21.2 °F 100% 29.71 in 1.0 mi ENE 3.5 mph - N/A   Mist